DW9945 Weather Reports


Display with metric or nautical units.
time (UTC)temp
F
wind
direction
speed
MPH
gust
MPH
rain 1hr
in
rain 24hr
in
rain mn
in
humidity
%
barometer
mb
20260510173017 59 231 8.0 16.0 0.00 0.31 0.22 56 1012.6
20260510172517 59 251 10.0 16.0 0.00 0.31 0.22 54 1012.6
20260510172017 60 242 10.0 17.0 0.00 0.31 0.22 54 1012.5
20260510171518 59 208 9.0 16.0 0.00 0.31 0.22 56 1012.6
20260510171017 59 227 10.0 20.0 0.00 0.31 0.22 57 1012.6
20260510170506 60 228 13.0 18.0 0.00 0.31 0.22 56 1012.5
20260510170009 59 233 9.0 16.0 0.00 0.31 0.22 56 1012.4
20260510165517 59 245 6.0 17.0 0.00 0.31 0.22 59 1012.5
20260510165024 59 236 10.0 18.0 0.00 0.31 0.22 57 1012.4
20260510164518 59 255 9.0 20.0 0.00 0.35 0.22 60 1012.4
20260510164018 59 203 8.0 20.0 0.00 0.36 0.22 61 1012.2
20260510163518 59 208 10.0 18.0 0.00 0.37 0.22 61 1012.4
20260510162518 58 209 7.0 13.0 0.00 0.37 0.22 64 1012.2
20260510161518 57 202 8.0 13.0 0.00 0.37 0.22 70 1012.5
20260510161018 57 200 8.0 13.0 0.00 0.37 0.22 70 1012.4
20260510160518 57 191 10.0 16.0 0.00 0.37 0.22 68 1012.5
20260510160018 57 230 8.0 16.0 0.00 0.37 0.22 66 1012.3
20260510155517 57 226 7.0 15.0 0.00 0.37 0.22 66 1012.5
20260510155018 57 233 7.0 13.0 0.00 0.37 0.22 68 1012.4
20260510154017 57 239 7.0 16.0 0.00 0.37 0.22 68 1012.5
20260510153518 57 236 7.0 12.0 0.00 0.37 0.22 67 1012.5
20260510153018 57 252 4.0 13.0 0.00 0.37 0.22 69 1012.6
20260510152517 57 250 10.0 16.0 0.00 0.37 0.22 66 1012.6
20260510152018 57 232 10.0 17.0 0.00 0.37 0.22 69 1012.6
20260510151517 56 216 5.0 12.0 0.00 0.37 0.22 71 1012.6
20260510151017 56 258 7.0 14.0 0.00 0.37 0.22 72 1012.6
20260510150518 55 210 7.0 13.0 0.00 0.37 0.22 73 1012.7
20260510145006 55 237 7.0 17.0 0.00 0.37 0.22 75 1012.9
20260510144518 55 231 11.0 18.0 0.00 0.37 0.22 74 1013.0
20260510144017 55 226 10.0 17.0 0.00 0.37 0.22 76 1012.9
20260510143517 55 237 7.0 12.0 0.00 0.37 0.22 77 1012.9
20260510143018 55 241 8.0 12.0 0.00 0.37 0.22 77 1012.9
20260510142518 55 240 7.0 14.0 0.00 0.37 0.22 77 1012.8
20260510141518 55 232 7.0 12.0 0.00 0.37 0.22 77 1012.8
20260510141018 55 245 8.0 12.0 0.00 0.37 0.22 77 1012.8
20260510140507 55 251 7.0 12.0 0.00 0.37 0.22 77 1012.8
20260510140017 55 260 3.0 12.0 0.00 0.37 0.22 78 1013.0
20260510135518 55 239 5.0 12.0 0.00 0.37 0.22 77 1012.9
20260510135018 55 241 5.0 12.0 0.00 0.37 0.22 75 1012.9
20260510134518 55 248 6.0 14.0 0.00 0.37 0.22 76 1012.8
20260510134018 55 216 6.0 12.0 0.00 0.37 0.22 76 1012.7
20260510133507 55 232 7.0 12.0 0.00 0.37 0.22 74 1012.7
20260510132506 55 210 7.0 14.0 0.00 0.39 0.22 74 1012.8
20260510132020 55 239 7.0 13.0 0.00 0.40 0.22 75 1012.8
20260510131517 54 210 7.0 10.0 0.00 0.41 0.22 77 1012.8
20260510131018 54 193 7.0 12.0 0.00 0.43 0.22 78 1012.9
20260510130518 54 196 6.0 9.0 0.00 0.46 0.22 79 1012.9
20260510125017 53 235 5.0 10.0 0.00 0.51 0.22 81 1012.9
20260510124517 53 222 6.0 12.0 0.01 0.53 0.22 78 1013.1
20260510123506 53 217 7.0 12.0 0.04 0.53 0.22 79 1013.2
20260510123018 53 246 7.0 12.0 0.04 0.53 0.22 79 1013.3
20260510122507 53 213 6.0 12.0 0.04 0.53 0.22 79 1013.1
20260510122018 53 251 6.0 12.0 0.04 0.53 0.22 80 1012.9
20260510121017 52 247 4.0 8.0 0.04 0.53 0.22 84 1013.1
20260510120518 52 231 3.0 8.0 0.04 0.53 0.22 86 1013.3
20260510120018 51 279 4.0 12.0 0.04 0.53 0.22 87 1013.3
20260510115518 51 258 6.0 14.0 0.04 0.53 0.22 85 1013.3
20260510115017 51 246 8.0 14.0 0.05 0.53 0.22 86 1013.3
20260510114517 51 248 8.0 15.0 0.11 0.52 0.21 86 1013.3
20260510114017 52 239 10.0 15.0 0.11 0.50 0.20 84 1013.4
20260510113518 52 245 10.0 17.0 0.09 0.49 0.18 82 1013.4
20260510113017 53 224 11.0 20.0 0.09 0.49 0.18 82 1013.4
20260510112517 53 240 8.0 16.0 0.09 0.49 0.18 83 1013.2
20260510112017 53 245 12.0 17.0 0.09 0.49 0.18 82 1012.9
20260510111517 53 269 7.0 14.0 0.09 0.49 0.18 85 1012.6
20260510111017 53 282 7.0 17.0 0.09 0.49 0.18 86 1012.6
20260510110518 52 288 10.0 20.0 0.09 0.49 0.18 87 1012.5
20260510110017 53 278 7.0 15.0 0.09 0.49 0.18 87 1012.4
20260510105017 55 223 9.0 20.0 0.09 0.48 0.17 84 1012.3
20260510104517 56 226 7.0 15.0 0.02 0.41 0.10 80 1012.1
20260510104017 57 185 10.0 21.0 0.00 0.39 0.09 77 1011.9
20260510103018 57 188 12.0 25.0 0.00 0.39 0.09 76 1011.8
20260510101519 56 177 14.0 23.0 0.00 0.40 0.09 79 1012.0
20260510101019 56 186 10.0 20.0 0.00 0.40 0.09 80 1012.1
20260510100508 56 174 9.0 17.0 0.00 0.40 0.09 81 1012.1
20260510100019 56 170 10.0 21.0 0.00 0.40 0.09 82 1012.2
20260510095518 55 186 8.0 14.0 0.00 0.40 0.09 84 1012.3
20260510095019 55 180 7.0 12.0 0.00 0.40 0.09 83 1012.2
20260510094519 55 182 9.0 15.0 0.00 0.40 0.09 82 1012.4
20260510094008 55 166 8.0 12.0 0.00 0.40 0.09 81 1012.4
20260510093519 55 182 9.0 15.0 0.00 0.40 0.09 82 1012.3
20260510093019 55 187 8.0 13.0 0.00 0.40 0.09 84 1012.4
20260510092508 55 191 7.0 12.0 0.00 0.40 0.09 85 1012.4
20260510092019 55 183 7.0 12.0 0.00 0.41 0.09 85 1012.6
20260510091019 54 175 8.0 13.0 0.00 0.43 0.09 85 1012.6
20260510090008 53 191 6.0 12.0 0.01 0.43 0.09 89 1012.7
20260510085519 53 188 6.0 10.0 0.01 0.43 0.09 89 1012.7
20260510085019 53 184 6.0 13.0 0.01 0.43 0.09 89 1012.8
20260510084519 53 174 7.0 12.0 0.02 0.43 0.09 89 1013.0
20260510084018 53 177 6.0 12.0 0.02 0.43 0.09 89 1012.8
20260510083019 53 188 8.0 15.0 0.02 0.43 0.09 89 1012.9
20260510082518 53 183 7.0 10.0 0.02 0.43 0.09 90 1012.8
20260510082019 53 202 6.0 15.0 0.02 0.43 0.09 89 1013.0
20260510081519 53 186 7.0 15.0 0.02 0.43 0.09 88 1012.8
20260510081019 53 194 7.0 14.0 0.02 0.43 0.09 88 1012.8
20260510080508 53 207 9.0 13.0 0.02 0.43 0.09 87 1013.1
20260510080020 53 196 6.0 12.0 0.01 0.43 0.08 89 1013.1
20260510075519 53 197 7.0 12.0 0.01 0.43 0.08 89 1013.2
20260510074019 52 194 7.0 10.0 0.00 0.42 0.07 89 1013.3
20260510073519 52 182 5.0 10.0 0.00 0.42 0.07 90 1013.2
20260510073019 52 197 6.0 10.0 0.00 0.42 0.07 90 1013.1
20260510071520 51 178 4.0 7.0 0.00 0.42 0.07 92 1013.0
20260510071019 51 180 3.0 5.0 0.00 0.42 0.07 92 1013.1
20260510070522 50 180 3.0 6.0 0.00 0.42 0.07 92 1013.1
20260510070019 50 192 3.0 7.0 0.00 0.42 0.07 92 1013.1
20260510065518 50 205 2.0 3.0 0.00 0.42 0.07 93 1013.1
20260510065019 50 175 4.0 6.0 0.00 0.42 0.07 93 1013.0
20260510064519 50 190 5.0 6.0 0.00 0.42 0.07 93 1012.9
20260510064019 50 189 2.0 5.0 0.00 0.42 0.07 93 1012.8
20260510063519 49 197 3.0 5.0 0.00 0.42 0.07 93 1012.9
20260510063019 49 194 2.0 5.0 0.00 0.42 0.07 94 1012.8
20260510062518 49 168 0.0 5.0 0.00 0.42 0.07 94 1012.8
20260510062019 49 174 1.0 3.0 0.00 0.42 0.07 94 1012.8
20260510060507 48 186 0.0 1.0 0.00 0.42 0.07 94 1012.7
20260510060019 48 186 0.0 1.0 0.00 0.42 0.07 94 1012.8
20260510055518 48 186 0.0 1.0 0.00 0.42 0.07 94 1012.7
20260510055018 48 186 0.0 2.0 0.00 0.42 0.07 94 1012.6
20260510054519 48 186 1.0 3.0 0.00 0.42 0.07 94 1012.6
20260510054007 48 200 2.0 3.0 0.00 0.42 0.07 94 1012.5
20260510053518 48 193 2.0 3.0 0.00 0.42 0.07 94 1012.6
20260510053019 48 196 1.0 3.0 0.00 0.42 0.07 95 1012.5
20260510052518 47 196 2.0 3.0 0.00 0.42 0.07 95 1012.4
20260510052018 47 196 0.0 0.0 0.00 0.42 0.07 95 1012.3
20260510051518 47 196 0.0 3.0 0.00 0.42 0.07 94 1012.3
20260510051018 47 196 0.0 0.0 0.00 0.42 0.07 93 1012.3
20260510050518 47 196 0.0 0.0 0.00 0.42 0.07 93 1012.4
20260510050019 47 196 0.0 0.0 0.00 0.42 0.07 94 1012.3
20260510045019 47 196 0.0 0.0 0.00 0.42 0.07 94 1012.4
20260510044519 47 196 0.0 0.0 0.00 0.42 0.07 93 1012.4
20260510043507 47 196 0.0 0.0 0.00 0.42 0.07 93 1012.5
20260510043019 48 196 0.0 0.0 0.00 0.42 0.07 93 1012.4
20260510042518 48 196 0.0 0.0 0.00 0.42 0.07 93 1012.5
20260510042018 48 196 0.0 2.0 0.00 0.42 0.07 93 1012.6
20260510041519 48 196 2.0 3.0 0.00 0.42 0.07 94 1012.5
20260510041019 48 164 1.0 5.0 0.00 0.42 0.07 94 1012.4
20260510040519 48 150 1.0 3.0 0.00 0.42 0.07 94 1012.4
20260510040019 48 150 0.0 2.0 0.00 0.42 0.07 94 1012.5
20260510035508 48 150 0.0 0.0 0.00 0.42 0.07 94 1012.5
20260510034519 49 150 1.0 3.0 0.00 0.42 0.07 94 1012.5
20260510034019 49 164 1.0 3.0 0.00 0.42 0.07 94 1012.7
20260510033519 49 171 2.0 5.0 0.00 0.42 0.07 94 1012.8
20260510033018 49 185 2.0 3.0 0.00 0.42 0.07 94 1012.8
20260510032518 49 197 1.0 3.0 0.00 0.42 0.07 93 1012.8
20260510032018 49 169 2.0 3.0 0.00 0.42 0.07 94 1012.9
20260510031518 49 173 1.0 3.0 0.00 0.42 0.07 93 1012.9
20260510031018 49 181 2.0 3.0 0.00 0.42 0.07 93 1013.0
20260510030519 49 191 0.0 3.0 0.00 0.42 0.07 94 1013.0
20260510025008 49 190 5.0 7.0 0.00 0.42 0.07 93 1013.0
20260510023519 49 186 3.0 5.0 0.00 0.42 0.07 93 1013.1
20260510023019 50 175 2.0 3.0 0.00 0.42 0.07 93 1013.1
20260510022519 50 191 3.0 6.0 0.00 0.42 0.07 93 1013.1
20260510022018 50 193 3.0 5.0 0.00 0.42 0.07 93 1013.1
20260510021519 50 191 3.0 7.0 0.00 0.42 0.07 93 1013.2
20260510021018 50 182 5.0 6.0 0.00 0.42 0.07 93 1013.2
20260510020519 50 192 3.0 6.0 0.00 0.42 0.07 93 1013.0
20260510020018 50 183 2.0 5.0 0.00 0.42 0.07 93 1013.0
20260510015518 50 188 3.0 5.0 0.00 0.42 0.07 93 1013.0
20260510015008 50 178 3.0 5.0 0.00 0.42 0.07 92 1013.0
20260510014519 50 191 2.0 3.0 0.00 0.42 0.07 92 1013.0
20260510014018 50 189 3.0 5.0 0.00 0.42 0.07 92 1013.0
20260510013507 50 201 0.0 5.0 0.00 0.42 0.07 92 1013.0
20260510013019 50 201 2.0 5.0 0.01 0.42 0.07 92 1013.0
20260510012018 50 188 3.0 5.0 0.01 0.42 0.07 92 1013.1
20260510011508 50 188 3.0 5.0 0.01 0.42 0.07 92 1013.0
20260510011018 51 165 3.0 5.0 0.01 0.42 0.07 92 1013.0
20260510010508 51 191 2.0 3.0 0.01 0.42 0.07 92 1013.0
20260510010008 51 189 3.0 5.0 0.01 0.42 0.07 91 1013.2
20260510005507 51 191 1.0 5.0 0.01 0.42 0.07 91 1013.1
20260510004507 51 186 2.0 5.0 0.01 0.42 0.07 91 1013.1
20260510004007 51 160 2.0 6.0 0.01 0.42 0.07 91 1013.1
20260510003507 51 183 4.0 7.0 0.02 0.42 0.07 90 1013.2
20260510003008 51 196 5.0 7.0 0.01 0.41 0.06 90 1013.3
20260510002508 51 190 5.0 8.0 0.02 0.41 0.06 90 1013.3
20260510002008 51 187 3.0 6.0 0.02 0.41 0.06 90 1013.2
20260510001507 51 217 2.0 6.0 0.02 0.41 0.06 90 1013.2
20260510001008 51 208 3.0 8.0 0.06 0.41 0.06 90 1013.2
20260510000508 51 210 3.0 9.0 0.06 0.41 0.06 90 1013.2
20260510000008 51 200 5.0 9.0 0.06 0.41 0.06 90 1013.2
20260509235510 51 205 5.0 7.0 0.06 0.41 0.06 90 1013.2
20260509235007 51 201 3.0 6.0 0.06 0.41 0.06 90 1013.3
20260509234507 51 206 5.0 8.0 0.06 0.41 0.06 90 1013.3
20260509234008 51 209 4.0 8.0 0.06 0.41 0.06 91 1013.2
20260509233508 51 216 5.0 8.0 0.06 0.40 0.06 91 1013.2
20260509233007 51 214 5.0 9.0 0.06 0.40 0.06 91 1013.4
20260509232507 51 199 5.0 9.0 0.05 0.39 0.05 92 1013.4
20260509232007 51 240 4.0 8.0 0.05 0.39 0.05 92 1013.6
20260509231507 51 211 2.0 6.0 0.04 0.39 0.04 92 1013.5
20260509231007 51 197 5.0 8.0 0.00 0.35 0.00 91 1013.6
20260509230507 51 187 3.0 6.0 0.00 0.35 0.00 90 1013.3
20260509230008 51 181 3.0 5.0 0.00 0.35 0.00 90 1013.2
20260509225507 51 197 3.0 5.0 0.00 0.35 0.00 90 1013.1
20260509224508 51 211 1.0 3.0 0.00 0.35 0.00 90 1013.1
20260509223508 51 206 2.0 5.0 0.00 0.35 0.00 89 1013.0
20260509223008 51 193 5.0 9.0 0.00 0.35 0.00 89 1013.0
20260509222507 51 176 3.0 7.0 0.00 0.35 0.00 89 1012.8
20260509222007 51 189 4.0 6.0 0.01 0.35 0.00 87 1012.6
20260509221507 51 187 4.0 7.0 0.02 0.35 0.00 86 1012.6
20260509220508 51 211 4.0 10.0 0.03 0.35 0.00 86 1012.6
20260509215507 51 256 5.0 10.0 0.09 0.35 0.35 88 1012.5
20260509215007 51 252 3.0 8.0 0.09 0.35 0.35 89 1012.5
20260509214508 50 250 5.0 8.0 0.09 0.35 0.35 89 1012.5
20260509214007 50 261 5.0 9.0 0.09 0.35 0.35 89 1012.5
20260509213507 50 262 6.0 12.0 0.09 0.35 0.35 89 1012.5
20260509213007 50 267 6.0 13.0 0.09 0.35 0.35 90 1012.6
20260509212507 50 283 5.0 9.0 0.09 0.35 0.35 90 1012.6
20260509212007 50 287 7.0 12.0 0.08 0.34 0.34 89 1012.6
20260509211507 50 280 5.0 14.0 0.08 0.34 0.34 89 1012.7
20260509211007 51 273 9.0 17.0 0.06 0.32 0.32 88 1012.7
20260509210008 52 294 8.0 15.0 0.05 0.31 0.31 85 1012.6
20260509205507 55 275 14.0 26.0 0.00 0.26 0.26 78 1012.6
20260509204507 56 194 9.0 16.0 0.00 0.26 0.26 75 1011.1
20260509204007 56 191 7.0 14.0 0.00 0.26 0.26 75 1011.0
20260509203508 56 188 10.0 16.0 0.00 0.26 0.26 74 1011.0
20260509203007 56 196 9.0 15.0 0.00 0.26 0.26 75 1010.9
20260509202507 56 188 7.0 14.0 0.00 0.26 0.26 75 1010.8
20260509202007 56 191 7.0 15.0 0.00 0.26 0.26 75 1010.7
20260509201507 56 194 7.0 16.0 0.00 0.26 0.26 76 1010.6
20260509201007 57 179 4.0 10.0 0.00 0.26 0.26 76 1010.5
20260509200507 57 186 6.0 12.0 0.00 0.26 0.26 76 1010.3
20260509200008 57 188 9.0 15.0 0.00 0.26 0.26 76 1010.3
20260509195507 57 182 6.0 12.0 0.00 0.26 0.26 76 1010.2
20260509195007 57 177 6.0 12.0 0.00 0.26 0.26 76 1010.1
20260509194507 57 173 6.0 12.0 0.00 0.26 0.26 76 1010.0
20260509194007 57 179 6.0 13.0 0.00 0.26 0.26 76 1009.9
20260509193507 57 171 7.0 14.0 0.00 0.26 0.26 77 1009.8
20260509193007 57 193 8.0 13.0 0.00 0.26 0.26 79 1009.7
20260509192507 57 190 6.0 12.0 0.00 0.26 0.26 82 1009.6
20260509192007 57 167 6.0 10.0 0.00 0.26 0.26 83 1009.4
20260509191507 57 160 4.0 7.0 0.00 0.26 0.26 83 1009.4
20260509191007 57 131 0.0 3.0 0.00 0.26 0.26 83 1009.4
20260509190507 57 154 1.0 3.0 0.00 0.26 0.26 83 1009.5
20260509190008 58 206 3.0 6.0 0.00 0.26 0.26 82 1009.4
20260509185507 58 191 3.0 6.0 0.00 0.26 0.26 82 1009.4
20260509185007 58 167 3.0 7.0 0.00 0.26 0.26 82 1009.2
20260509184509 58 179 5.0 10.0 0.00 0.26 0.26 82 1009.3
20260509184010 58 154 5.0 9.0 0.00 0.26 0.26 81 1009.3
20260509183512 58 167 6.0 12.0 0.00 0.26 0.26 81 1009.3
20260509183008 58 163 4.0 10.0 0.00 0.26 0.26 80 1009.3
20260509182507 58 147 6.0 10.0 0.00 0.26 0.26 80 1009.3
20260509182007 58 173 4.0 9.0 0.00 0.26 0.26 80 1009.3
20260509181507 58 180 7.0 12.0 0.00 0.26 0.26 79 1009.2
20260509180507 58 184 7.0 12.0 0.00 0.26 0.26 78 1009.4
20260509180008 58 176 7.0 12.0 0.00 0.26 0.26 78 1009.4
20260509175507 58 167 6.0 10.0 0.00 0.26 0.26 79 1009.4
20260509175007 58 180 6.0 10.0 0.01 0.26 0.26 79 1009.5
20260509174507 57 174 6.0 12.0 0.05 0.26 0.26 80 1009.4
20260509174007 57 182 5.0 12.0 0.06 0.26 0.26 83 1009.4
20260509173507 57 169 5.0 9.0 0.06 0.26 0.26 83 1009.4